ZYTXZSNJ

Guest
Details From ZYTX - TAOXIAN
To ZSNJ - LUKOU
Flight Number -
Tags decoded
Created
Modified
Stats Distance 663 nm / 1,227 km
Max Altitude 0 ft / 0 m
Waypoints 6
Social Downloads 0
Likes 0
Share VATSIM

Download

Looking for another format? Having issues loading an existing format? Contact us
Advertisement - Login to hide

Notes

Requested: ZYTX BIDIB A588 UDETI W106 MAKNO W173 IGDEG W172 ABVER A591 LATUX YCH W185 MIXEM A593 PIMOL W184 ZJ ZSNJ Unmatched points: BIDIB A588 UDETI W106 W173 IGDEG W172 ABVER A591 YCH W185 MIXEM A593 W184

Route

ZYTX MAKNO LATUX PIMOL ZJ ZSNJ

ID Type Via Altitude Latitude Longitude Leg Dist Tot Dist Heading (true) Name
O ZYTX APT - 0 ft / 0 m 41.63984˚ 123.48343˚ - 0 nm - TAOXIAN
MAKNO FIX - 0 ft / 0 m 38.46333˚ 121.14833˚ 218 nm 218 nm 210° / 209° -
LATUX FIX - 0 ft / 0 m 35.53333˚ 120.73333˚ 177 nm 395 nm 187° / 186° -
PIMOL FIX - 0 ft / 0 m 32.24667˚ 119.77833˚ 203 nm 599 nm 194° / 193° -
ZJ NDB - 0 ft / 0 m 31.94167˚ 119.71167˚ 18 nm 617 nm 191° / 190° CHANGZHOU NDB
O ZSNJ APT - 0 ft / 0 m 31.74204˚ 118.86202˚ 44 nm 662 nm 255° / 254° LUKOU

Altitude Profile

Advertisement - Login to hide

Weather


0- 5 10 15 20 25 30 35+ Temperature / ° C

Clouds and Precipitation
Forecast for 2017-12-18 12:00 UTC. Updated 7 minutes ago

Ground ~20,000 ft ~40,000 ft Winds

ZYTX

Details ICAO ZYTX (SHE)
Name TAOXIAN
Region China
Timezone Asia/Shanghai (UTC+8.0)
Stats Elevation 198 ft / 60 m (AMSL)
Location 41.639840° 123.483425°
Runways 1
Magnetic Variation 9.069° W

METAR

ZYTX 180900Z 32002MPS 280V040 CAVOK M04/M15 Q1025 NOSIG

Decode

TAF

Not found

Departure Runways

ID Width Length Bearing (true) Bearing (mag) Surface Threshold Offset Overrun Length
06 148 ft / 45 m 10,461 ft / 3,189 m 48.62° 57.69° Concrete 0 ft / 0 m 197 ft / 60 m
24 148 ft / 45 m 10,461 ft / 3,189 m 228.64° 237.71° Concrete 0 ft / 0 m 197 ft / 60 m

ZSNJ

Details ICAO ZSNJ (NKG)
Name LUKOU
Region China
Timezone Asia/Shanghai (UTC+8.0)
Stats Elevation 49 ft / 15 m (AMSL)
Location 31.742041° 118.862024°
Runways 1
Magnetic Variation 5.596° W

METAR

ZSNJ 180900Z 24002MPS CAVOK 07/M06 Q1031 NOSIG

Decode

TAF

Not found

Destination Runways

ID Width Length Bearing (true) Bearing (mag) Surface Threshold Offset Overrun Length
06 148 ft / 45 m 11,806 ft / 3,599 m 57.92° 63.52° Concrete 0 ft / 0 m 200 ft / 61 m
24 148 ft / 45 m 11,806 ft / 3,599 m 237.93° 243.53° Concrete 0 ft / 0 m 200 ft / 61 m

Approach Navaids

Runway Type Ident Frequency Range Bearing (true) Bearing (mag) Slope Elevation
06 Localiser IMI 110.30 MHz 18 nm / 33 km 57.86° 63.46° - 49 ft / 15 m (AMSL)
06 Glidescope IMI 110.30 MHz 10 nm / 19 km 57.92° 63.52° 3.00° 49 ft / 15 m (AMSL)
24 Localiser IGG 110.90 MHz 18 nm / 33 km 237.85° 243.44° - 49 ft / 15 m (AMSL)
24 Glidescope IGG 110.90 MHz 10 nm / 19 km 237.92° 243.52° 3.00° 49 ft / 15 m (AMSL)

Popular Alternatives